This is the latest recevied weather packets stored in our database for station/object EA3ANS-1. If no packets are shown the sender has not sent any weather packets the latest 10 day(s).
| Time | Temp. | Humidity | Pressure | Rain* | Wind** | Luminosity | Snow |
|---|---|---|---|---|---|---|---|
| 1787989101 | 20° C | - | 1018.2 hPa | 0 mm | 1.34 m/s, 342° | - | - |
| 1787988504 | 19.44° C | - | 1018.3 hPa | 0 mm | 1.79 m/s, 323° | - | - |
| 1787987888 | 19.44° C | - | 1018.3 hPa | 0 mm | 2.68 m/s, 315° | - | - |
| 1787987290 | 18.89° C | - | 1018.2 hPa | 0 mm | 1.34 m/s, 312° | - | - |
| 1787986693 | 18.33° C | - | 1018.2 hPa | 0 mm | 2.24 m/s, 328° | - | - |
| 1787986095 | 17.78° C | - | 1018.1 hPa | 0 mm | 2.24 m/s, 314° | - | - |
| 1787985492 | 17.22° C | - | 1018.1 hPa | 0 mm | 2.68 m/s, 293° | - | - |
| 1787984895 | 17.22° C | - | 1018.2 hPa | 0 mm | 2.24 m/s, 8° | - | - |
| 1787984297 | 16.67° C | - | 1018.2 hPa | 0 mm | 1.79 m/s, 319° | - | - |
| 1787983690 | 16.67° C | - | 1018.1 hPa | 0 mm | 3.13 m/s, 336° | - | - |
| 1787983093 | 16.67° C | - | 1018 hPa | 0 mm | 3.13 m/s, 319° | - | - |
| 1787982487 | 16.67° C | - | 1018 hPa | 0 mm | 4.02 m/s, 305° | - | - |
| 1787981890 | 16.67° C | - | 1017.9 hPa | 0 mm | 3.58 m/s, 305° | - | - |
| 1787981289 | 16.67° C | - | 1018 hPa | 0 mm | 1.79 m/s, 290° | - | - |
| 1787980692 | 16.67° C | - | 1017.7 hPa | 0 mm | 2.24 m/s, 316° | - | - |
| 1787980090 | 16.67° C | - | 1017.9 hPa | 0 mm | 3.13 m/s, 308° | - | - |
| 1787979485 | 17.22° C | - | 1017.7 hPa | 0 mm | 3.58 m/s, 335° | - | - |
| 1787978888 | 17.22° C | - | 1017.7 hPa | 0 mm | 3.13 m/s, 336° | - | - |
| 1787978290 | 17.78° C | - | 1017.7 hPa | 0 mm | 2.68 m/s, 314° | - | - |
| 1787977693 | 17.78° C | - | 1017.7 hPa | 0 mm | 3.13 m/s, 297° | - | - |
| 1787977095 | 17.78° C | - | 1017.6 hPa | 0 mm | 2.68 m/s, 187° | - | - |
| 1787976495 | 18.33° C | - | 1017.6 hPa | 0 mm | 2.68 m/s, 330° | - | - |
| 1787975898 | 18.33° C | - | 1017.6 hPa | 0 mm | 3.58 m/s, 316° | - | - |
| 1787975294 | 18.89° C | - | 1017.5 hPa | 0 mm | 3.13 m/s, 326° | - | - |
| 1787974691 | 18.33° C | - | 1017.5 hPa | 0 mm | 3.58 m/s, 330° | - | - |
* Rain latest hour (hover to see other rain measurements)
** Current wind speed in m/s (hover to see current wind gust speed)